Weather Roundup
Issued by NWS

Home | Current Version | Previous Version | Text Only | Print | Product List | Glossary On
Versions: 1 2 3 4 5 6 7 8 9 10 11 12 13 14 15 16 17 18 19 20 21 22 23 24 25 26 27 28 29 30 31 32 33 34 35 36 37 38 39 40 41 42 43 44 45 46 47 48 49 50
321
NZUS93 KARX 201410
HRRWXR

CURRENT HOURLY OBSERVATIONS ACROSS
MUCH OF THE UPPER MISSISSIPPI VALLEY
NATIONAL WEATHER SERVICE LA CROSSE WI
800 AM CST TUE FEB 20 2018


...SOUTHEAST MINNESOTA...


CITY           SKY/WX    TMP DP  RH WIND       PRES   REMARKS
ROCHESTER      CLOUDY    21  20  96 NW13      29.81S WCI   9
ROCHESTER/MAYO CLOUDY    22  21  96 NW9       29.81F WCI  12
WINONA         CLOUDY    28  27  93 N7        29.80S WCI  21
AUSTIN         CLOUDY    21  18  86 NW7       29.82S WCI  13
ALBERT LEA     CLOUDY    19  18  93 CALM      29.83S FOG
DODGE CENTER   CLOUDY    19  18  93 NW5       29.81S WCI  13
PRESTON        CLOUDY    27  25  95 NW8       29.80R FOG     WCI  18
OWATONNA       CLOUDY    19  18  93 CALM      29.84R
FARIBAULT      CLOUDY    19  18  93 W3        29.85S FOG
$$

...ELSEWHERE IN MINNESOTA...


CITY           SKY/WX    TMP DP  RH WIND       PRES   REMARKS
MINNEAPOLIS    FRZ DRZL  20  18  92 N8        29.87R WCI  10
INTNL FALLS    LGT SNOW   4   0  83 N6        29.96R VSB 1   WCI  -7
DULUTH         FLURRIES   8   4  83 N8        29.83F WCI  -4
RED WING       CLOUDY    21  18  86 CALM      29.83F
REDWOOD FALLS  CLOUDY    12   9  87 NW14      29.93S WCI  -3
MANKATO        CLOUDY    17  14  88 NW10      29.88R WCI   5
WORTHINGTON    FLURRIES   9   6  88 NW16      29.92R WCI  -8
FAIRMONT       CLOUDY    15  12  88 NW15      29.89F WCI   0
$$

...SOUTHWEST WISCONSIN...


CITY           SKY/WX    TMP DP  RH WIND       PRES   REMARKS
LA CROSSE      CLOUDY    32  30  92 CALM      29.80R
PRAIRIE DU CHI CLOUDY    34  33  96 CALM      29.82R
BOSCOBEL       CLOUDY    35  34  96 CALM      29.83F FOG
LONE ROCK      CLOUDY    34  34 100 CALM      29.82F FOG
PLATTEVILLE    CLOUDY    34  34 100 SW5       29.83R WCI  30
FORT MC COY    CLOUDY    31  30  99 CALM      29.81S
CAMP DOUGLAS   CLOUDY    32  32 100 CALM      29.80R
MAUSTON-NEW LI CLOUDY    32  32  99 CALM      29.80R FOG
VIROQUA        CLOUDY    32  32 100 SE3       29.78F
WIS DELLS      MIX PCPN  32  31  99 CALM      29.81R
$$

...ELSEWHERE IN WISCONSIN...


CITY           SKY/WX    TMP DP  RH WIND       PRES   REMARKS
MILWAUKEE      CLOUDY    43  42  97 NW6       29.84R
MADISON        CLOUDY    34  34 100 CALM      29.84R
GREEN BAY      MIX PCPN  31  29  92 E6        29.78R WCI  25
EAU CLAIRE     CLOUDY    21  19  92 N6        29.82R WCI  13
BLACK RVR FLS  CLOUDY    31  31 100 CALM      29.79S
MEDFORD        CLOUDY    26  25  96 CALM      29.76R
WAUSAU         CLOUDY    28  28 100 S7        29.75F WCI  21
WIS RAPIDS     MIX PCPN  30  28  92 CALM      29.79F
MARSHFIELD     CLOUDY    29  28  96 S6        29.76R FOG     WCI  23
RICE LAKE      CLOUDY    19  17  90 N5        29.84R WCI  13
$$

...NORTHEAST IOWA...


CITY           SKY/WX    TMP DP  RH WIND       PRES   REMARKS
WATERLOO       CLOUDY    31  30  96 W7        29.85R WCI  24
DUBUQUE        CLOUDY    33  32  96 W3        29.82R
DECORAH        CLOUDY    32  32 100 CALM      29.78R
MASON CITY     CLOUDY    21  18  88 NW12      29.88R WCI   9
CHARLES CITY   CLOUDY    28  28 100 W15       29.84R WCI  17
OELWEIN        CLOUDY    32  32 100 W8G16     29.83R WCI  25
$$

...ELSEWHERE IN IOWA...


CITY           SKY/WX    TMP DP  RH WIND       PRES   REMARKS
DES MOINES     FRZ DRZL  27  25  92 NW13      29.93R FOG     WCI  16
IOWA CITY      CLOUDY    35  32  88 NW3       29.85F
FORT DODGE     CLOUDY    20  17  88 W12       29.92R WCI   8
MARSHALLTOWN   FRZ RAIN  29  28  96 W14       29.88R WCI  18
CEDAR RAPIDS   CLOUDY    34  33  96 NW6       29.83S WCI  29
$$

...NORTHERN ILLINOIS...


CITY           SKY/WX    TMP DP  RH WIND       PRES   REMARKS
CHICAGO-OHARE  CLOUDY    59  56  89 SW9       29.85S
CHICAGO-MIDWAY CLOUDY    60  60 100 SW9       29.87R
MOLINE         CLOUDY    38  36  92 W8        29.85R WCI  32
ROCKFORD       LGT RAIN  40  40 100 SE5       29.85R FOG
PEORIA         CLOUDY    61  58  90 S14       29.85R
$$

NOTE: "FAIR" INDICATES FEW OR NO CLOUDS BELOW 12,000 FEET WITH NO
SIGNIFICANT WEATHER AND/OR OBSTRUCTIONS TO VISIBILITY. WIND
SPEEDS ARE IN MILES-PER-HOUR.




USA.gov is the U.S. government's official web portal to all federal, state and local government web resources and services.